Weather reports worldwide

Advertisment
Athinai Hellinikon, Greece (16716): temperature & dewpoint: 12.01.2021 09:00:00 - 18.01.2021 09:00:00 (EET)Athinai Hellinikon, Greece (16716): wind speed: 12.01.2021 09:00:00 - 18.01.2021 09:00:00 (EET)Athinai Hellinikon, Greece (16716): wind direction: 12.01.2021 09:00:00 - 18.01.2021 09:00:00 (EET)Athinai Hellinikon, Greece (16716): reduced air pressure: 12.01.2021 09:00:00 - 18.01.2021 09:00:00 (EET)Athinai Hellinikon, Greece (16716): visibility: 12.01.2021 09:00:00 - 18.01.2021 09:00:00 (EET)Athinai Hellinikon, Greece (16716): precipitation: 12.01.2021 09:00:00 - 18.01.2021 09:00:00 (EET)
Date & Time tt [°C] td [°C] ff [km/h] ff [kn] dd ppp [hPa] vv [km] rr [mm]
18.01.2021 09:00:00 - - - - - - - -
18.01.2021 08:00:00 4,2 -3,4 9 5 N 1018,2 10 -
18.01.2021 07:00:00 - - - - - - - -
18.01.2021 06:00:00 - - - - - - - -
18.01.2021 05:00:00 4,7 -5,5 13 7 NNE 1016,2 - -
18.01.2021 04:00:00 - - - - - - - -
18.01.2021 03:00:00 - - - - - - - -
18.01.2021 02:00:00 4,5 -9,4 4 2 N 1017,0 - 0,0
18.01.2021 01:00:00 - - - - - - - -
18.01.2021 00:00:00 - - - - - - - -
17.01.2021 23:00:00 2,3 -8,5 2 1 N 1017,0 - -
17.01.2021 22:00:00 - - - - - - - -
17.01.2021 21:00:00 - - - - - - - -
17.01.2021 20:00:00 3,6 -9,8 8 4 N 1016,6 10 -
17.01.2021 19:00:00 - - - - - - - -
17.01.2021 18:00:00 - - - - - - - -
17.01.2021 17:00:00 4,5 -11,8 9 5 N 1015,4 - -
17.01.2021 16:00:00 - - - - - - - -
17.01.2021 15:00:00 - - - - - - - -
17.01.2021 14:00:00 5,2 -9,8 15 8 NNW 1015,3 10 -
17.01.2021 13:00:00 - - - - - - - -
17.01.2021 12:00:00 - - - - - - - -
17.01.2021 11:00:00 2,8 -7,7 21 11 NNW 1016,1 10 -
17.01.2021 10:00:00 - - - - - - - -
17.01.2021 09:00:00 - - - - - - - -
17.01.2021 08:00:00 1,2 -7,7 18 10 N 1014,3 10 -
17.01.2021 07:00:00 - - - - - - - -
17.01.2021 06:00:00 - - - - - - - -
17.01.2021 05:00:00 2,2 -5,4 15 8 NNW 1012,6 - -
17.01.2021 04:00:00 - - - - - - - -
17.01.2021 03:00:00 - - - - - - - -
17.01.2021 02:00:00 3,2 -2,4 11 6 NW 1011,7 - 0,0
17.01.2021 01:00:00 - - - - - - - -
17.01.2021 00:00:00 - - - - - - - -
16.01.2021 23:00:00 4,3 -0,6 13 7 NNW 1010,7 - -
16.01.2021 22:00:00 - - - - - - - -
16.01.2021 21:00:00 - - - - - - - -
16.01.2021 20:00:00 5,2 0,3 15 8 NNW 1009,4 10 -
16.01.2021 19:00:00 - - - - - - - -
16.01.2021 18:00:00 - - - - - - - -
16.01.2021 17:00:00 5,7 1,1 11 6 NNW 1007,6 - -
16.01.2021 16:00:00 - - - - - - - -
16.01.2021 15:00:00 - - - - - - - -
16.01.2021 14:00:00 5,6 3,7 4 2 N 1007,2 8 -
16.01.2021 13:00:00 - - - - - - - -
16.01.2021 12:00:00 - - - - - - - -
16.01.2021 11:00:00 5,2 2,9 11 6 N 1008,6 8 -
16.01.2021 10:00:00 - - - - - - - -
16.01.2021 09:00:00 - - - - - - - -
16.01.2021 08:00:00 5,4 3,1 16 9 N 1008,4 8 -
16.01.2021 07:00:00 - - - - - - - -
16.01.2021 06:00:00 - - - - - - - -
16.01.2021 05:00:00 7,4 4,1 8 4 N 1008,4 - -
16.01.2021 04:00:00 - - - - - - - -
16.01.2021 03:00:00 - - - - - - - -
16.01.2021 02:00:00 8,4 3,0 4 2 N 1011,2 - 0,0
16.01.2021 01:00:00 - - - - - - - -
16.01.2021 00:00:00 - - - - - - - -
15.01.2021 23:00:00 8,0 2,5 11 6 N 1013,3 - -
15.01.2021 22:00:00 - - - - - - - -
15.01.2021 21:00:00 - - - - - - - -
15.01.2021 20:00:00 8,0 -0,2 4 2 NE 1014,1 10 -
15.01.2021 19:00:00 - - - - - - - -
15.01.2021 18:00:00 - - - - - - - -
15.01.2021 17:00:00 8,1 -1,2 11 6 NNE 1013,6 - -
15.01.2021 16:00:00 - - - - - - - -
15.01.2021 15:00:00 - - - - - - - -
15.01.2021 14:00:00 9,0 -1,0 11 6 N 1013,4 10 -
15.01.2021 13:00:00 - - - - - - - -
15.01.2021 12:00:00 - - - - - - - -
15.01.2021 11:00:00 8,8 -0,3 18 10 N 1013,8 10 -
15.01.2021 10:00:00 - - - - - - - -
15.01.2021 09:00:00 - - - - - - - -
15.01.2021 08:00:00 8,8 -0,9 11 6 N 1011,7 10 -
15.01.2021 07:00:00 - - - - - - - -
15.01.2021 06:00:00 - - - - - - - -
15.01.2021 05:00:00 9,2 2,0 16 9 N 1009,5 - -
15.01.2021 04:00:00 - - - - - - - -
15.01.2021 03:00:00 - - - - - - - -
15.01.2021 02:00:00 12,6 5,8 9 5 N 1007,5 - 0,0
15.01.2021 01:00:00 - - - - - - - -
15.01.2021 00:00:00 - - - - - - - -
14.01.2021 23:00:00 10,1 2,8 5 3 N 1008,3 - -
14.01.2021 22:00:00 - - - - - - - -
14.01.2021 21:00:00 - - - - - - - -
14.01.2021 20:00:00 10,8 3,2 8 4 S 1010,1 10 -
14.01.2021 19:00:00 - - - - - - - -
14.01.2021 18:00:00 - - - - - - - -
14.01.2021 17:00:00 11,7 -0,2 4 2 N 1009,9 - -
14.01.2021 16:00:00 - - - - - - - -
14.01.2021 15:00:00 - - - - - - - -
14.01.2021 14:00:00 12,8 -4,4 11 6 NW 1010,1 10 -
14.01.2021 13:00:00 - - - - - - - -
14.01.2021 12:00:00 - - - - - - - -
14.01.2021 11:00:00 10,2 -1,5 18 10 NNW 1011,9 10 -
14.01.2021 10:00:00 - - - - - - - -
14.01.2021 09:00:00 - - - - - - - -
14.01.2021 08:00:00 8,2 2,2 9 5 N 1009,6 10 -
14.01.2021 07:00:00 - - - - - - - -
14.01.2021 06:00:00 - - - - - - - -
14.01.2021 05:00:00 9,5 4,0 5 3 N 1008,1 - -
14.01.2021 04:00:00 - - - - - - - -
14.01.2021 03:00:00 - - - - - - - -
14.01.2021 02:00:00 10,5 3,7 5 3 N 1008,7 - 0,0
14.01.2021 01:00:00 - - - - - - - -
14.01.2021 00:00:00 - - - - - - - -
13.01.2021 23:00:00 11,1 3,5 5 3 N 1009,0 - -
13.01.2021 22:00:00 - - - - - - - -
13.01.2021 21:00:00 - - - - - - - -
13.01.2021 20:00:00 13,0 2,7 13 7 NNW 1008,2 10 -
13.01.2021 19:00:00 - - - - - - - -
13.01.2021 18:00:00 - - - - - - - -
13.01.2021 17:00:00 13,8 3,8 18 10 W 1007,6 - -
13.01.2021 16:00:00 - - - - - - - -
13.01.2021 15:00:00 - - - - - - - -
13.01.2021 14:00:00 15,4 3,9 21 11 NW 1007,6 10 -
13.01.2021 13:00:00 - - - - - - - -
13.01.2021 12:00:00 - - - - - - - -
13.01.2021 11:00:00 13,4 1,9 5 3 N 1008,9 10 -
13.01.2021 10:00:00 - - - - - - - -
13.01.2021 09:00:00 - - - - - - - -
13.01.2021 08:00:00 9,6 3,9 0 0 N 1007,8 10 -
13.01.2021 07:00:00 - - - - - - - -
13.01.2021 06:00:00 - - - - - - - -
13.01.2021 05:00:00 - - - - - - - -
13.01.2021 04:00:00 - - - - - - - -
13.01.2021 03:00:00 - - - - - - - -
13.01.2021 02:00:00 12,8 5,2 5 3 N 1006,3 - 0,0
13.01.2021 01:00:00 - - - - - - - -
13.01.2021 00:00:00 - - - - - - - -
12.01.2021 23:00:00 13,9 3,8 5 3 N 1006,2 - -
12.01.2021 22:00:00 - - - - - - - -
12.01.2021 21:00:00 - - - - - - - -
12.01.2021 20:00:00 15,2 4,4 13 7 NW 1005,1 10 -
12.01.2021 19:00:00 - - - - - - - -
12.01.2021 18:00:00 - - - - - - - -
12.01.2021 17:00:00 17,0 11,4 9 5 N 1004,9 - -
12.01.2021 16:00:00 - - - - - - - -
12.01.2021 15:00:00 - - - - - - - -
12.01.2021 14:00:00 19,4 14,9 16 9 S 1005,6 8 -
12.01.2021 13:00:00 - - - - - - - -
12.01.2021 12:00:00 - - - - - - - -
12.01.2021 11:00:00 18,2 14,3 15 8 S 1008,7 8 -
12.01.2021 10:00:00 - - - - - - - -
12.01.2021 09:00:00 - - - - - - - -

tt = temperature
td = dewpoint
ff = wind speed
dd = wind direction
ppp = reduced air pressure
vv = visibility
rr = precipitation

Next stations